Location: Newark
(35.8833°N, 14.5000°E)
Time: 17:58:24
(UTC+00:00)

BEESAT - Pass Details

Date: 19 November 2019
Orbit: 700 x 709 km, 98.6° (Epoch: 06 December)

Event Time Altitude Azimuth Distance (km) Brightness Sun altitude
Rises 17:21:04 0° 359° (N) 3,094 ? -17.9°
Reaches altitude 10° 17:23:36 10° 348° (NNW) 2,173 ? -18.4°
Maximum altitude 17:27:33 27° 291° (WNW) 1,346 ? -19.2°
Drops below altitude 10° 17:31:30 10° 235° (SW) 2,166 ? -20.0°
Sets 17:34:02 0° 223° (SW) 3,082 ? -20.5°
